Location: ?ern� Novina
(50.6762°N, 14.8696°E)
Time: 10:58:34
(UTC+00:00)

Cosmos 1992 Rocket - Pass Details

Date: 03 March 2021
Orbit: 759 x 765 km, 74.0° (Epoch: 16 April)

Event Time Altitude Azimuth Distance (km) Brightness Sun altitude
Rises 17:48:28 0° 192° (SSW) 3,218 7.3 -10.8°
Reaches altitude 10° 17:50:51 10° 189° (S) 2,296 6.5 -11.1°
Maximum altitude 17:55:59 63° 109° (ESE) 856 4.0 -12.0°
Drops below altitude 10° 18:01:09 10° 30° (NNE) 2,309 6.2 -12.8°
Sets 18:03:33 0° 27° (NNE) 3,239 7.0 -13.1°
